Location: Hermaringen
(48.5952°N, 10.2585°E)
Time: 10:18:05
(UTC+00:00)

Courier 1B - Pass Details

Date: 17 February 2026
Orbit: 962 x 1208 km, 28.3° (Epoch: 7 March)

Event Time Altitude Azimuth Distance (km) Brightness Sun altitude
Rises 19:48:31 0° 221° (SW) 3,956 10.9 -30.9°
Reaches altitude 10° 19:52:54 10° 197° (SSW) 3,047 10.0 -31.6°
Enters shadow 19:53:42 11° 192° (SSW) 2,944 9.9 -31.7°
Maximum altitude 19:56:26 14° 169° (S) 2,796 - -32.2°
Drops below altitude 10° 20:00:00 10° 141° (SE) 3,110 - -32.7°
Sets 20:04:34 0° 118° (ESE) 4,098 - -33.4°
